Location: Champseau
(45.8333°N, 1.7667°E)
Time: 18:04:56
(UTC+00:00)

Cosmos 1825 Rocket - Pass Details

Date: 18 April 2021
Orbit: 604 x 630 km, 82.5° (Epoch: 11 May)

Event Time Altitude Azimuth Distance (km) Brightness Sun altitude
Rises 19:13:08 0° 351° (N) 2,888 7.5 -5.6°
Reaches altitude 10° 19:15:21 10° 352° (N) 1,983 6.6 -6.0°
Maximum altitude 19:19:45 86° 81° (E) 625 3.6 -6.7°
Drops below altitude 10° 19:24:09 10° 171° (S) 1,983 5.8 -7.4°
Sets 19:26:23 0° 172° (S) 2,888 6.7 -7.8°
